FW7132 Weather Reports


time (UTC)temp
C
wind
direction
speed
KPH
gust
KPH
rain 1hr
cm
rain 24hr
cm
rain mn
cm
humidity
%
barometer
mb
20260507170303 27 260 0.0 8.0 0.00 0.00 0.00 20 1014.8
20260507165803 27 314 3.2 8.0 0.00 0.00 0.00 19 1014.7
20260507164803 27 217 3.2 11.3 0.00 0.00 0.00 20 1014.7
20260507164302 27 223 11.3 11.3 0.00 0.00 0.00 21 1014.7
20260507163802 26 263 6.4 8.0 0.00 0.00 0.00 21 1014.7
20260507163302 26 294 4.8 8.0 0.00 0.00 0.00 21 1014.6
20260507162302 26 228 3.2 6.4 0.00 0.00 0.00 22 1014.7
20260507161801 26 293 3.2 4.8 0.00 0.00 0.00 22 1014.7
20260507161302 26 235 0.0 4.8 0.00 0.00 0.00 22 1014.8
20260507160801 26 214 3.2 4.8 0.00 0.00 0.00 23 1014.7
20260507160301 26 244 0.0 4.8 0.00 0.00 0.00 23 1014.9
20260507155301 25 202 0.0 6.4 0.00 0.00 0.00 24 1014.9
20260507154801 25 184 0.0 6.4 0.00 0.00 0.00 25 1014.9
20260507154301 25 169 1.6 6.4 0.00 0.00 0.00 25 1014.9
20260507153800 24 129 1.6 4.8 0.00 0.00 0.00 25 1014.8
20260507153301 24 134 3.2 4.8 0.00 0.00 0.00 25 1014.8
20260507152801 24 122 1.6 4.8 0.00 0.00 0.00 26 1014.9
20260507152300 23 149 1.6 6.4 0.00 0.00 0.00 27 1014.8
20260507151300 23 248 3.2 4.8 0.00 0.00 0.00 28 1014.9
20260507150800 23 138 1.6 4.8 0.00 0.00 0.00 29 1014.7
20260507150300 23 153 1.6 4.8 0.00 0.00 0.00 29 1014.8
20260507145759 22 164 3.2 4.8 0.00 0.00 0.00 30 1014.9
20260507144759 22 146 0.0 6.4 0.00 0.00 0.00 31 1014.8
20260507144259 22 97 0.0 6.4 0.00 0.00 0.00 31 1014.9
20260507143759 22 111 1.6 6.4 0.00 0.00 0.00 31 1014.8
20260507143259 22 164 0.0 4.8 0.00 0.00 0.00 30 1014.8
20260507142759 22 146 0.0 3.2 0.00 0.00 0.00 32 1014.9
20260507142258 21 100 0.0 3.2 0.00 0.00 0.00 33 1014.9
20260507141758 21 100 0.0 3.2 0.00 0.00 0.00 32 1014.8
20260507141258 21 108 1.6 3.2 0.00 0.00 0.00 31 1014.9
20260507140258 21 103 0.0 1.6 0.00 0.00 0.00 32 1014.7
20260507135758 21 129 0.0 1.6 0.00 0.00 0.00 31 1014.6
20260507135258 20 213 1.6 1.6 0.00 0.00 0.00 32 1015.0
20260507134757 20 141 0.0 1.6 0.00 0.00 0.00 34 1015.0
20260507134257 20 100 0.0 1.6 0.00 0.00 0.00 35 1014.8
20260507133757 19 61 0.0 1.6 0.00 0.00 0.00 36 1014.7
20260507133257 18 60 1.6 1.6 0.00 0.00 0.00 40 1014.6
20260507132757 17 61 0.0 3.2 0.00 0.00 0.00 41 1014.4
20260507132256 16 71 0.0 4.8 0.00 0.00 0.00 44 1014.2
20260507131757 16 33 1.6 4.8 0.00 0.00 0.00 46 1014.2
20260507130756 15 53 0.0 1.6 0.00 0.00 0.00 49 1014.0
20260507130256 15 53 0.0 0.0 0.00 0.00 0.00 47 1014.1
20260507125756 15 53 0.0 3.2 0.00 0.00 0.00 47 1014.1
20260507125256 15 54 0.0 3.2 0.00 0.00 0.00 46 1014.2
20260507124756 15 33 1.6 1.6 0.00 0.00 0.00 48 1014.3
20260507124255 16 5 0.0 1.6 0.00 0.00 0.00 45 1014.2
20260507123755 16 5 0.0 1.6 0.00 0.00 0.00 45 1014.2
20260507122755 16 104 1.6 1.6 0.00 0.00 0.00 45 1014.1
20260507122255 16 105 0.0 1.6 0.00 0.00 0.00 45 1014.1
20260507121755 16 96 0.0 1.6 0.00 0.00 0.00 47 1014.1
20260507121254 16 93 0.0 1.6 0.00 0.00 0.00 43 1014.2
20260507120754 16 93 0.0 1.6 0.00 0.00 0.00 44 1014.2
20260507120254 17 170 0.0 1.6 0.00 0.00 0.00 43 1014.1
20260507115754 16 32 0.0 3.2 0.00 0.00 0.00 41 1014.2
20260507115254 16 111 1.6 3.2 0.00 0.00 0.00 45 1014.1
20260507114254 16 70 0.0 1.6 0.00 0.00 0.00 44 1014.0
20260507113753 16 82 0.0 3.2 0.00 0.00 0.00 45 1014.1
20260507113253 16 82 0.0 3.2 0.00 0.00 0.00 43 1014.3
20260507112753 16 81 1.6 3.2 0.00 0.00 0.00 43 1014.2
20260507112253 16 91 0.0 3.2 0.00 0.00 0.00 44 1014.3
20260507111753 16 73 0.0 4.8 0.00 0.00 0.00 43 1014.3
20260507111253 16 205 0.0 8.0 0.00 0.00 0.00 42 1014.2
20260507110753 16 132 1.6 8.0 0.00 0.00 0.00 43 1014.2
20260507110252 17 297 0.0 1.6 0.00 0.00 0.00 40 1014.1
20260507105253 17 293 0.0 3.2 0.00 0.00 0.00 41 1014.3
20260507104752 17 316 0.0 1.6 0.00 0.00 0.00 40 1014.2
20260507104252 17 65 0.0 0.0 0.00 0.00 0.00 44 1014.2
20260507103752 17 39 0.0 1.6 0.00 0.00 0.00 40 1014.2
20260507103252 17 39 0.0 1.6 0.00 0.00 0.00 45 1014.2
20260507102251 17 32 0.0 1.6 0.00 0.00 0.00 42 1014.4
20260507101751 17 32 0.0 1.6 0.00 0.00 0.00 40 1014.5
20260507101251 17 32 0.0 1.6 0.00 0.00 0.00 38 1014.5
20260507100751 18 27 0.0 3.2 0.00 0.00 0.00 36 1014.6
20260507095751 18 7 0.0 4.8 0.00 0.00 0.00 35 1014.8
20260507095250 18 9 3.2 4.8 0.00 0.00 0.00 35 1014.8
20260507094751 18 340 4.8 4.8 0.00 0.00 0.00 35 1014.7
20260507094250 18 325 1.6 4.8 0.00 0.00 0.00 35 1014.9
20260507093250 18 327 0.0 4.8 0.00 0.00 0.00 35 1015.0
20260507092750 18 323 3.2 4.8 0.00 0.00 0.00 36 1015.0
20260507092250 17 293 0.0 3.2 0.00 0.00 0.00 37 1015.1
20260507091750 17 296 0.0 1.6 0.00 0.00 0.00 39 1014.9
20260507091250 16 329 0.0 1.6 0.00 0.00 0.00 42 1015.0
20260507090249 16 351 0.0 1.6 0.00 0.00 0.00 52 1014.9
20260507085749 16 359 0.0 1.6 0.00 0.00 0.00 51 1014.9
20260507085249 16 359 0.0 0.0 0.00 0.00 0.00 54 1014.9
20260507084749 16 359 0.0 0.0 0.00 0.00 0.00 56 1015.0
20260507084249 16 359 0.0 0.0 0.00 0.00 0.00 54 1015.0
20260507083749 16 358 0.0 0.0 0.00 0.00 0.00 55 1015.0
20260507082748 16 359 0.0 1.6 0.00 0.00 0.00 55 1015.1
20260507082248 16 358 0.0 1.6 0.00 0.00 0.00 52 1015.2
20260507081748 16 101 0.0 0.0 0.00 0.00 0.00 51 1015.2
20260507080747 16 148 0.0 0.0 0.00 0.00 0.00 50 1015.3
20260507080248 17 322 0.0 0.0 0.00 0.00 0.00 44 1015.4
20260507072746 17 322 0.0 0.0 0.00 0.00 0.00 41 1015.3
20260507072247 17 322 0.0 0.0 0.00 0.00 0.00 42 1015.3
20260507071747 17 322 0.0 0.0 0.00 0.00 0.00 41 1015.3
20260507071316 18 322 0.0 0.0 0.00 0.00 0.00 43 1015.5
20260507070746 18 322 0.0 0.0 0.00 0.00 0.00 43 1015.5
20260507070316 18 322 0.0 0.0 0.00 0.00 0.00 42 1015.5
20260507065816 18 322 0.0 0.0 0.00 0.00 0.00 39 1015.5
20260507064816 18 322 0.0 1.6 0.00 0.00 0.00 42 1015.4
20260507063815 18 356 0.0 1.6 0.00 0.00 0.00 39 1015.3
20260507063315 18 356 0.0 1.6 0.00 0.00 0.00 42 1015.4
20260507062815 19 356 0.0 0.0 0.00 0.00 0.00 39 1015.4
20260507062314 20 356 0.0 0.0 0.00 0.00 0.00 39 1015.5
20260507061815 20 356 0.0 0.0 0.00 0.00 0.00 35 1015.5
20260507061314 20 356 0.0 0.0 0.00 0.00 0.00 35 1015.5
20260507060814 21 356 0.0 1.6 0.00 0.00 0.00 33 1015.7
20260507060314 20 356 0.0 3.2 0.00 0.00 0.00 32 1015.4
20260507055814 20 347 0.0 3.2 0.00 0.00 0.00 33 1015.3
20260507054813 19 99 0.0 1.6 0.00 0.00 0.00 43 1015.3
20260507053313 19 99 0.0 1.6 0.00 0.00 0.00 44 1015.4
20260507052813 19 99 0.0 1.6 0.00 0.00 0.00 42 1015.3
20260507052313 20 99 0.0 1.6 0.00 0.00 0.00 38 1015.4
20260507051812 20 99 0.0 1.6 0.00 0.00 0.00 38 1015.3
20260507051312 20 99 0.0 1.6 0.00 0.00 0.00 39 1015.3
20260507050812 20 99 0.0 1.6 0.00 0.00 0.00 41 1015.3
20260507050312 20 99 0.0 1.6 0.00 0.00 0.00 42 1015.3
20260507045812 19 99 1.6 1.6 0.00 0.00 0.00 42 1015.2
20260507044812 20 99 0.0 1.6 0.00 0.00 0.00 44 1015.2
20260507043811 20 99 0.0 1.6 0.00 0.00 0.00 44 1015.1
20260507043311 20 99 0.0 0.0 0.00 0.00 0.00 44 1015.1
20260507042811 20 99 0.0 0.0 0.00 0.00 0.00 43 1015.0
20260507042311 20 99 0.0 0.0 0.00 0.00 0.00 43 1015.0
20260507041811 20 99 0.0 0.0 0.00 0.00 0.00 46 1015.0
20260507041311 20 99 0.0 0.0 0.00 0.00 0.00 45 1014.9
20260507040811 20 99 0.0 1.6 0.00 0.00 0.00 45 1014.9
20260507040311 20 99 0.0 1.6 0.00 0.00 0.00 44 1014.8
20260507030309 21 219 0.0 0.0 0.00 0.00 0.00 39 1014.1
20260507025808 21 219 0.0 0.0 0.00 0.00 0.00 38 1014.0
20260507025308 22 219 0.0 0.0 0.00 0.00 0.00 36 1013.8
20260507024808 22 219 0.0 0.0 0.00 0.00 0.00 33 1013.9
20260507024308 22 219 0.0 0.0 0.00 0.00 0.00 32 1013.7
20260507023308 23 219 0.0 0.0 0.00 0.00 0.00 30 1013.8
20260507022808 23 219 0.0 1.6 0.00 0.00 0.00 27 1013.6
20260507022308 24 219 0.0 1.6 0.00 0.00 0.00 26 1013.7
20260507021808 25 219 0.0 1.6 0.00 0.00 0.00 26 1013.5
20260507021307 25 219 0.0 3.2 0.00 0.00 0.00 24 1013.5
20260507020807 25 224 0.0 3.2 0.00 0.00 0.00 24 1013.8
20260507020307 26 228 0.0 3.2 0.00 0.00 0.00 23 1013.6
20260507015807 26 228 0.0 6.4 0.00 0.00 0.00 23 1013.6
20260507015307 26 207 0.0 8.0 0.00 0.00 0.00 22 1013.4
20260507014806 27 216 1.6 8.0 0.00 0.00 0.00 21 1013.6
20260507014307 27 238 0.0 4.8 0.00 0.00 0.00 22 1013.5
20260507013806 27 235 0.0 4.8 0.00 0.00 0.00 21 1013.5
20260507013306 27 231 0.0 3.2 0.00 0.00 0.00 21 1013.6
20260507012307 27 276 0.0 4.8 0.00 0.00 0.00 21 1013.6
20260507011806 27 221 4.8 6.4 0.00 0.00 0.00 21 1013.6
20260507011305 27 243 1.6 6.4 0.00 0.00 0.00 21 1013.7
20260507010805 27 192 1.6 9.7 0.00 0.00 0.00 21 1013.5
20260507005805 27 283 0.0 11.3 0.00 0.00 0.00 21 1013.6
20260507005306 27 289 1.6 11.3 0.00 0.00 0.00 21 1012.9
20260507004805 28 219 6.4 6.4 0.00 0.00 0.00 20 1013.0
20260507003804 27 150 1.6 8.0 0.00 0.00 0.00 21 1012.8
20260507003304 27 334 0.0 8.0 0.00 0.00 0.00 20 1012.8
20260507002805 28 264 3.2 8.0 0.00 0.00 0.00 20 1013.0
20260507002306 28 200 4.8 6.4 0.00 0.00 0.00 20 1013.0
20260507001804 27 205 0.0 8.0 0.00 0.00 0.00 20 1012.8
20260507001304 28 242 0.0 9.7 0.00 0.00 0.00 20 1012.9
20260507000804 28 223 3.2 9.7 0.00 0.00 0.00 21 1013.0
20260506230802 27 265 0.0 6.4 0.00 0.00 0.00 21 1013.2
20260506230302 27 75 0.0 14.5 0.00 0.00 0.00 21 1013.2
20260506225802 27 299 1.6 14.5 0.00 0.00 0.00 21 1013.3
20260506225305 28 257 4.8 11.3 0.00 0.00 0.00 21 1013.5
20260506224301 27 302 11.3 16.1 0.00 0.00 0.00 21 1013.7
20260506223801 27 287 11.3 16.1 0.00 0.00 0.00 21 1013.6
20260506223301 27 257 4.8 12.9 0.00 0.00 0.00 21 1013.7
20260506221801 27 249 3.2 12.9 0.00 0.00 0.00 21 1013.9
20260506221300 27 333 3.2 12.9 0.00 0.00 0.00 21 1013.9
20260506220800 27 317 3.2 11.3 0.00 0.00 0.00 21 1013.9
20260506220300 27 280 3.2 11.3 0.00 0.00 0.00 20 1014.2
20260506215800 27 269 6.4 6.4 0.00 0.00 0.00 21 1014.2
20260506215300 27 304 1.6 4.8 0.00 0.00 0.00 21 1014.3
20260506213759 27 151 1.6 12.9 0.00 0.00 0.00 21 1014.6
20260506212759 27 310 3.2 9.7 0.00 0.00 0.00 22 1014.7
20260506212259 27 302 6.4 9.7 0.00 0.00 0.00 22 1014.6
20260506211759 27 286 4.8 9.7 0.00 0.00 0.00 22 1014.8
20260506211258 26 290 4.8 6.4 0.00 0.00 0.00 22 1014.8
20260506210759 26 349 3.2 8.0 0.00 0.00 0.00 22 1014.8
20260506210258 26 297 0.0 11.3 0.00 0.00 0.00 22 1015.0
20260506204758 26 322 1.6 14.5 0.00 0.00 0.00 23 1015.4
20260506203758 26 299 8.0 12.9 0.00 0.00 0.00 23 1015.5
20260506203257 26 88 1.6 12.9 0.00 0.00 0.00 23 1015.5
20260506202757 26 317 0.0 9.7 0.00 0.00 0.00 23 1015.5
20260506202257 26 299 0.0 11.3 0.00 0.00 0.00 24 1015.6
20260506201757 26 282 6.4 11.3 0.00 0.00 0.00 23 1015.7
20260506201257 26 283 4.8 9.7 0.00 0.00 0.00 24 1015.7
20260506200757 25 272 3.2 9.7 0.00 0.00 0.00 24 1015.7
20260506200256 26 220 3.2 9.7 0.00 0.00 0.00 25 1015.9
20260506195256 26 292 3.2 17.7 0.00 0.00 0.00 25 1015.9
20260506194756 25 231 4.8 12.9 0.00 0.00 0.00 26 1015.9
20260506194256 25 321 3.2 12.9 0.00 0.00 0.00 25 1015.9
20260506193756 25 302 0.0 11.3 0.00 0.00 0.00 25 1016.1
20260506192756 25 208 3.2 9.7 0.00 0.00 0.00 26 1016.2
20260506192255 25 274 3.2 9.7 0.00 0.00 0.00 26 1016.2
20260506191755 25 247 1.6 8.0 0.00 0.00 0.00 27 1016.2
20260506190755 24 304 6.4 14.5 0.00 0.00 0.00 27 1016.2
20260506190255 25 271 11.3 12.9 0.00 0.00 0.00 27 1016.5
20260506185755 25 224 3.2 12.9 0.00 0.00 0.00 27 1016.4
20260506185255 25 303 1.6 12.9 0.00 0.00 0.00 27 1016.5
20260506184755 25 234 6.4 16.1 0.00 0.00 0.00 27 1016.5
20260506184255 25 311 3.2 16.1 0.00 0.00 0.00 26 1016.6
20260506183754 24 23 1.6 9.7 0.00 0.00 0.00 27 1016.7
20260506182254 23 295 0.0 9.7 0.00 0.00 0.00 28 1016.9
20260506181754 24 209 4.8 8.0 0.00 0.00 0.00 28 1016.9
20260506181253 24 276 4.8 9.7 0.00 0.00 0.00 28 1017.0
20260506180754 24 237 1.6 9.7 0.00 0.00 0.00 29 1017.1
20260506180253 23 217 1.6 6.4 0.00 0.00 0.00 28 1017.0
20260506175753 23 123 0.0 6.4 0.00 0.00 0.00 30 1017.0
20260506175253 23 200 3.2 8.0 0.00 0.00 0.00 30 1016.8
20260506174753 23 239 3.2 9.7 0.00 0.00 0.00 31 1016.9
20260506174252 23 321 4.8 9.7 0.00 0.00 0.00 31 1017.0
20260506173252 22 216 1.6 6.4 0.00 0.03 0.00 31 1016.9
20260506172752 22 295 0.0 9.7 0.00 0.03 0.00 31 1016.8
20260506172252 22 237 1.6 11.3 0.00 0.03 0.00 32 1016.7
20260506171752 22 302 8.0 11.3 0.00 0.03 0.00 33 1016.7
20260506171251 22 321 3.2 6.4 0.00 0.03 0.00 32 1016.7